Regional Weather Roundup
Issued by NWS Sterling, VA

Home | Current Version | Previous Version | Text Only | Print | Product List | Glossary On
Versions: 1 2 3 4 5 6 7 8 9 10 11 12 13 14 15 16 17 18 19 20 21 22 23 24 25 26 27 28 29 30 31 32 33 34 35 36 37 38 39 40 41 42 43 44 45 46 47 48 49 50
000
ASUS41 KLWX 232010
RWRLWX

REGIONAL WEATHER ROUNDUP
NATIONAL WEATHER SERVICE BALTIMORE MD/WASHINGTON DC
400 PM EDT SAT AUG 23 2014

Note: "FAIR" indicates few or no clouds below 12,000 feet
with no significant weather and/or obstructions to visibility.
 TC=TEMPERATURE CELSIUS

 * =Non NWS site. Station does not report precipitation (e.g. rain,
    snow, etc.), thunder, or fog.

DCZ001-MDZ009-015-VAZ040>042-051-053>054-232100-
WASHINGTON METRO
  /KDAA//-FT BELVOIR

CITY           SKY/WX    TMP DP  RH WIND       PRES   REMARKS
WASHINGTON NAT RAIN      73  68  84 N9        30.04S
DULLES         LGT RAIN  68  67  96 NE3       30.04F FOG
ANDREWS AFB    LGT RAIN  72  70  94 NE10      30.04R
QUANTICO       RAIN      71  67  87 NE13      30.04R FOG
COLLEGE PARK*  CLOUDY    72  70  94 CALM      30.04S
LEESBURG*      CLOUDY    70  70 100 E5        30.06S
MANASSAS*      PTSUNNY   68  68 100 NE3       30.04R
GAITHERSBURG*  CLOUDY    70  66  88 CALM      30.09S

$$

MDZ006>007-011-014-232100-
BALTIMORE METRO

CITY           SKY/WX    TMP DP  RH WIND       PRES   REMARKS
BWI AIRPORT    RAIN      70  66  88 E9        30.05R FOG
MD SCIENCE CTR   N/A     71  68  90 MISG      30.06R
MARTIN STATE   LGT RAIN  72  70  94 E3        30.07R
FORT MEADE*    CLOUDY    70  66  88 NE3       30.07R

$$

MDZ012-015-019>023-232100-
MARYLAND EASTERN SHORE

CITY           SKY/WX    TMP DP  RH WIND       PRES   REMARKS
OCEAN CITY     LGT RAIN  73  65  75 E13G22    30.02S
SALISBURY      CLOUDY    75  65  70 E14       30.02S
BAY BRIDGE AP* LGT RAIN  70  68  94 E7        30.04S
CAMBRIDGE*     CLOUDY    73  64  73 E13G20    30.02S
EASTON*        LGT RAIN  72  72 100 E6        30.07S

$$

MDZ017>025-232100-
SOUTHERN MARYLAND

CITY           SKY/WX    TMP DP  RH WIND       PRES   REMARKS
PATUXENT RIVER LGT RAIN  72  69  90 E14       30.01S FOG
ST INIGOES     CLOUDY    75  66  73 N7        30.00S
LEONARDTOWN*   CLOUDY    72  66  83 CALM      30.03S

$$

MDZ003>005-232100-
NORTH CENTRAL MARYLAND

CITY           SKY/WX    TMP DP  RH WIND       PRES   REMARKS
FREDERICK*     DRIZZLE   72  72 100 CALM      30.08F
HAGERSTOWN APT CLOUDY    70  65  84 NE7       30.06F
WESTMINSTER*   DRIZZLE   68  66  94 CALM      30.08S

$$

MDZ501>502-232100-
WESTERN MARYLAND

CITY           SKY/WX    TMP DP  RH WIND       PRES   REMARKS
OAKLAND*       CLOUDY    66 N/A N/A SE10      30.09S
CUMBERLAND*    CLOUDY    72  66  83 CALM      30.08F

$$

VAZ025>031-232100-
SHENANDOAH VALLEY

CITY           SKY/WX    TMP DP  RH WIND       PRES   REMARKS
WINCHESTER*    CLOUDY    70  66  88 NE6       30.05S
STAUNTON*      CLOUDY    79  68  68 SE7       30.01F

$$

WVZ021-048>050-054>055-232100-
EASTERN WEST VIRGINIA PANHANDLE

CITY           SKY/WX    TMP DP  RH WIND       PRES   REMARKS
MARTINSBURG    CLOUDY    71  64  78 E3        30.06S
PETERSBURG*    NOT AVBL

$$

VAZ036>039-050-232100-
CENTRAL FOOTHILLS

CITY           SKY/WX    TMP DP  RH WIND       PRES   REMARKS
CHARLOTTESVILL CLOUDY    76  71  85 CALM      30.00S
ORANGE*        CLOUDY    75  70  83 NE7       30.01F

$$

VAZ055>057-232100-
NORTH AND CENTRAL PIEDMONT

CITY           SKY/WX    TMP DP  RH WIND       PRES   REMARKS
FREDERICKSBRG* RAIN      74  71  88 E6        30.00S
STAFFORD*      LGT RAIN  71  71 100 NE5       30.06R

$$

NCZ024-NYZ072-PAZ021-071-VAZ022-071-232100-
OTHER REGIONAL OBSERVATIONS

CITY           SKY/WX    TMP DP  RH WIND       PRES   REMARKS
NEW YORK CITY  PTSUNNY   75  57  53 CALM      30.11S
PHILADELPHIA   RAIN      68  65  90 E7        30.09R FOG
PITTSBURGH     MOSUNNY   80  63  55 NW8       30.03S
ROANOKE        PTSUNNY   83  71  67 SE10      29.99F
RICHMOND       CLOUDY    79  70  74 CALM      29.98F
RALEIGH        PTSUNNY   83  72  69 NE9       29.93F

$$

ANZ530>537-232100-
MARINE OBSERVATIONS

STATION/POSITION TIME  TEMP    WIND        PRES
                       AIR SEA DIR/SP/G
                 (UTC) (F)     (DEG/KT/KT) (MB)
THOMAS PT LIGHT  2000   71 78   70/ 13/ 14 1017.6S
BALT KEY BRIDGE  2000   72      60/  9/ 11 1017.1R
COVE POINT       2000   71     120/ 10/ 12 1016.1S
LEWISETTA        2000   76 79   60/  4/  5 1015.3F
SOLOMONS ISLAND  2000      80                N/A
PINEY POINT      2000           30/  3/  4   N/A

$$



USA.gov is the U.S. government's official web portal to all federal, state and local government web resources and services.